2000 GP82 

Epoch 2000 Apr. 6.0 TT = JDT 2451640.5                  Nakano

M  71.30138              (2000.0)            P               Q

n   0.59575491     Peri.  332.83933     +0.02665135     -0.97782667

a   1.3988065      Node   115.00219     +0.95373563     -0.03737418

e   0.3948792      Incl.   13.24939     +0.29946295     +0.20605383

P   1.65           H   16.9           G   0.15           U   *

Residuals in seconds of arc 

000404 704  0.1-  0.4+    000405 688  0.1+  0.2+    000408 621  0.2+  0.0   

000404 704  1.2-  0.8+    000405 688  0.3+  0.0     000408 704  0.1+  0.6-  

000404 704  0.7-  0.3-    000406 704  0.7-  0.5-    000408 704  0.5+  0.4+  

000404 704  0.4-  1.2-    000406 704  0.0   0.3+    000408 704  0.2+  1.0+  

000404 704  0.2-  0.1+    000406 704  0.0   0.2+    000408 734 (0.0   2.2-) 

000405 557  0.5-  0.2-    000406 704  0.5+  0.3+    000408 734  0.2+  0.3+  

000405 557  0.0   0.1-    000406 704  0.5-  0.7-    000408 704  0.5+  0.3+  

000405 557  0.3+  0.2+    000407 118  0.5-  0.6+    000408 734  0.1-  0.0   

000405 557  0.3-  0.2+    000407 118  0.2+  0.1+    000408 734  0.9-  0.7+  

000405 704  0.4+  0.0     000407 118  0.0   0.4+    000408 704  0.6+  0.8+  

000405 704  0.1+  0.1+    000407 704  0.8-  0.1+    000408 557  0.3-  0.3-  

000405 850  0.4+  0.2-    000407 704  0.3+  0.2+    000408 557  0.2-  0.4-  

000405 704  0.1-  0.3-    000407 704  1.5-  1.3-    000408 557  0.1+  0.0   

000405 854  1.0+  0.2-    000407 678  0.7+  1.4-    000409 046  0.1-  0.1-  

000405 854  0.3+  1.0-    000407 704  0.6+  0.3+    000409 046  1.3-  0.2-  

000405 854  1.4+  0.9-    000407 678  0.1-  1.4-    000409 046  0.3-  0.5+  

000405 704  0.1+  0.8+    000407 704  0.2+  0.1+    000409 046  0.7+  1.0-  

000405 704  0.1+  0.2+    000407 678  0.3-  0.5-    000410 621  0.0   0.5+  

000405 704  0.2+  0.0     000407 678  0.5+  0.1+    000410 621  0.0   0.5+  

000405 704  0.1+  0.1+    000407 699  0.1-  0.4+    000410 621  0.0   0.4+  

000405 673  0.6+  1.5+    000407 699  0.1-  0.3+    000411 608  0.5-  0.1-  

000405 850  1.9-  0.1-    000407 699  0.4-  0.1-    000411 608  0.6+  0.0   

000405 673  0.4+  1.2+    000407 699  0.6-  0.0     000411 608  0.9+  0.1-  

000405 704  0.6+  0.2+    000407 587  0.1+  0.6-    000411 402  0.0   0.2-  

000405 850  1.3+  0.0     000407 587  0.4+  0.6-    000411 402  0.4-  0.1+  

000405 704  0.2-  0.6-    000408 621  0.1-  0.1-    000411 402  0.0   0.2-  

000405 704  0.0   0.3+    000408 621  0.2-  0.1+                            

  

NAKANO

         **** Don't distribute anyone except personal use only ****

                (C) Copyright 2000 OAA/ComputingSection

write mail from CFAD0::NAKANO on 2000-04-13 05:25:47(JST).



 2000 GP82 

Epoch 2000 Apr. 6.0 TT = JDT 2451640.5                  Nakano

M  71.49410              (2000.0)            P               Q

n   0.59643835     Peri.  332.82033     +0.02919545     -0.97766964

a   1.3977377      Node   114.87314     +0.95371758     -0.03509124

e   0.3947359      Incl.   13.26102     +0.29928314     +0.20719722

P   1.65           H   16.9           G   0.15           U   *

  

NAKANO

         **** Don't distribute anyone except personal use only ****

                (C) Copyright 2000 OAA/ComputingSection

write mail from CFAD0::NAKANO on 2000-04-12 01:19:51(JST).

 





–ß‚è‚Ü‚·B